Weather History for Defuniak Springs, Defuniak Sp, FL

Change the Weather History Date:

Friday, January 10, 2014

  Actual Average (KCEW) Record (KCEW)
Temperature  
Mean Temperature 57 °F -  
Max Temperature 66 °F 56 °F 84 °F (1949)
Min Temperature 48 °F 34 °F 19 °F (2001)
Degree Days  
Heating Degree Days 8    
Growing Degree Days 7 (Base 50)    
Moisture  
Dew Point 56 °F    
Average Humidity 100    
Maximum Humidity 100    
Minimum Humidity 100    
Precipitation  
Precipitation 0.01 in - - ()
Sea Level Pressure  
Sea Level Pressure 30.11 in    
Wind  
Wind Speed 4 mph (ENE)    
Max Wind Speed 12 mph    
Max Gust Speed 16 mph    
Visibility 1 miles    
Events Fog , Rain    
Averages and records for this station are not official NWS values.
T = Trace of Precipitation, MM = Missing Value Source: NWS Daily Summary

Daily Weather History Graph

Daily Weather History Graph

Search for Another Location

Airport:

Trip Planner

Search our weather history database for the weather conditions in past years. The results will help you decide how hot, cold, wet, or windy it might be!

Date:

Astronomy

Jan. 10, 2014 Rise Set
Actual Time 6:43 AM CST 5:01 PM CST
Civil Twilight 6:16 AM CST 5:27 PM CST
Nautical Twilight 5:47 AM CST 5:57 PM CST
Astronomical Twilight 5:18 AM CST 6:26 PM CST
Moon 12:59 PM CST (1/10) 1:56 AM CST (1/10)
Length of Visible Light 11h 10m
Length of Day
10h 18m
Waxing Gibbous, 75% of the Moon is Illuminated
Jan 10
Waxing Gibbous
Jan 15
Full
Jan 23
Last Quarter
Jan 30
New
Feb 6
First Quarter

Hourly Weather History & Observations

Time (CST) Temp. Dew Point Humidity Pressure Visibility Wind Dir Wind Speed Gust Speed Precip Events Conditions
12:15 AM 48.2 °F 48.2 °F 100% 30.24 in 3.0 mi NE 4.6 mph - N/A   Overcast
12:35 AM 48.4 °F 48.4 °F 100% 30.23 in 2.5 mi NNE 4.6 mph - N/A   Overcast
12:55 AM 48.4 °F 48.4 °F 100% 30.22 in 3.0 mi NE 4.6 mph - N/A   Overcast
1:15 AM 48.6 °F 48.6 °F 100% 30.22 in 3.0 mi NNE 3.5 mph - N/A   Overcast
1:35 AM 48.7 °F 48.7 °F 100% 30.21 in 3.0 mi NNE 3.5 mph - N/A   Light Drizzle
1:55 AM 48.7 °F 48.7 °F 100% 30.21 in 3.0 mi NNE 5.8 mph - N/A   Overcast
2:15 AM 48.7 °F 48.7 °F 100% 30.21 in 2.0 mi NNE 4.6 mph - N/A   Overcast
2:35 AM 48.7 °F 48.7 °F 100% 30.20 in 1.8 mi NNE 4.6 mph - N/A   Overcast
2:55 AM 49.1 °F 49.1 °F 100% 30.20 in 2.5 mi NNE 5.8 mph - N/A   Overcast
3:15 AM 49.1 °F 49.1 °F 100% 30.20 in 2.5 mi NNE 5.8 mph - N/A   Overcast
3:35 AM 49.1 °F 49.1 °F 100% 30.19 in 2.0 mi NNE 4.6 mph - N/A   Overcast
3:55 AM 49.1 °F 49.1 °F 100% 30.19 in 2.0 mi NNE 5.8 mph - N/A   Overcast
4:15 AM 49.3 °F 49.3 °F 100% 30.18 in 1.8 mi NNE 5.8 mph - N/A   Overcast
4:35 AM 49.3 °F 49.3 °F 100% 30.18 in 2.0 mi NNE 4.6 mph - N/A   Overcast
4:55 AM 49.5 °F 49.5 °F 100% 30.18 in 2.5 mi NNE 5.8 mph - N/A   Overcast
5:15 AM 49.5 °F 49.5 °F 100% 30.18 in 2.5 mi NNE 4.6 mph - N/A   Overcast
5:35 AM 49.6 °F 49.6 °F 100% 30.17 in 2.5 mi NE 3.5 mph - N/A   Overcast
5:55 AM 49.6 °F 49.6 °F 100% 30.17 in 2.5 mi NE 5.8 mph - N/A   Overcast
6:15 AM 50.0 °F 50.0 °F 100% 30.17 in 2.5 mi NE 5.8 mph - N/A   Overcast
6:35 AM 50.0 °F 50.0 °F 100% 30.17 in 3.0 mi NE 5.8 mph - 0.01 in   Overcast
6:55 AM 50.2 °F 50.2 °F 100% 30.18 in 4.0 mi NE 5.8 mph - 0.01 in   Overcast
7:15 AM 50.4 °F 50.4 °F 100% 30.18 in 4.0 mi NE 4.6 mph - N/A   Overcast
7:35 AM 50.2 °F 50.2 °F 100% 30.18 in 1.5 mi NE 6.9 mph - N/A   Overcast
7:55 AM 50.5 °F 50.5 °F 100% 30.18 in 1.5 mi ENE 3.5 mph - N/A   Overcast
8:15 AM 50.9 °F 50.9 °F 100% 30.18 in 0.8 mi ENE 4.6 mph - N/A   Overcast
8:35 AM 50.9 °F 50.9 °F 100% 30.19 in 0.8 mi ENE 4.6 mph - N/A Rain Light Rain
8:55 AM 51.8 °F 51.8 °F 100% 30.18 in 1.2 mi NE 3.5 mph - N/A   Overcast
9:15 AM 52.2 °F 52.2 °F 100% 30.18 in 0.8 mi NE 4.6 mph - N/A   Overcast
9:35 AM 52.7 °F 52.7 °F 100% 30.19 in 0.5 mi ENE 5.8 mph - N/A Fog Fog
9:55 AM 53.1 °F 53.1 °F 100% 30.18 in 0.2 mi ENE 4.6 mph - N/A Fog Fog
10:15 AM 53.6 °F 53.6 °F 100% 30.17 in 0.2 mi NE 3.5 mph - N/A Fog Fog
10:35 AM 54.5 °F 54.5 °F 100% 30.16 in 0.5 mi ENE 4.6 mph - N/A Fog Fog
10:55 AM 54.7 °F 54.7 °F 100% 30.15 in 0.5 mi ENE 4.6 mph - N/A Fog Fog
11:15 AM 55.0 °F 55.0 °F 100% 30.14 in 0.5 mi ENE 3.5 mph - N/A Fog Fog
11:35 AM 55.6 °F 55.6 °F 100% 30.12 in 0.2 mi NE 3.5 mph - N/A Fog Fog
11:55 AM 55.8 °F 55.8 °F 100% 30.11 in 0.5 mi Calm Calm - N/A Fog Fog
12:15 PM 56.3 °F 56.3 °F 100% 30.09 in 0.2 mi ENE 4.6 mph - N/A Rain Rain
12:35 PM 56.3 °F 56.3 °F 100% 30.08 in 0.5 mi Calm Calm - N/A Fog Fog
12:55 PM 56.5 °F 56.5 °F 100% 30.06 in 0.5 mi NE 3.5 mph - N/A Rain Light Rain
1:15 PM 57.0 °F 57.0 °F 100% 30.06 in 0.5 mi ENE 4.6 mph - N/A Fog Fog
1:35 PM 57.2 °F 57.2 °F 100% 30.05 in 1.2 mi ENE 4.6 mph - N/A   Overcast
1:55 PM 57.4 °F 57.4 °F 100% 30.05 in 0.5 mi ENE 3.5 mph - N/A Fog Fog
2:15 PM 57.9 °F 57.9 °F 100% 30.05 in 0.2 mi East 3.5 mph - N/A Fog Fog
2:35 PM 57.7 °F 57.7 °F 100% 30.05 in 0.2 mi ENE 3.5 mph - N/A Fog Fog
2:55 PM 58.1 °F 58.1 °F 100% 30.04 in 0.2 mi East 3.5 mph - N/A Fog Fog
3:15 PM 58.5 °F 58.5 °F 100% 30.04 in 0.5 mi East 3.5 mph - N/A Fog Fog
3:35 PM 58.5 °F 58.5 °F 100% 30.04 in 0.5 mi East 3.5 mph - N/A Fog Fog
3:55 PM 58.8 °F 58.8 °F 100% 30.03 in 0.5 mi East 4.6 mph - N/A Fog Fog
4:15 PM 59.0 °F 59.0 °F 100% 30.04 in 0.5 mi Calm Calm - N/A Fog Fog
4:35 PM 59.0 °F 59.0 °F 100% 30.04 in 0.2 mi Calm Calm - N/A Fog Fog
4:55 PM 59.0 °F 59.0 °F 100% 30.04 in 0.2 mi ENE 3.5 mph - N/A Fog Fog
5:15 PM 59.0 °F 59.0 °F 100% 30.04 in 0.2 mi East 3.5 mph - N/A Fog Fog
5:35 PM 59.0 °F 59.0 °F 100% 30.03 in 0.2 mi East 4.6 mph - N/A Fog Fog
5:55 PM 59.0 °F 59.0 °F 100% 30.04 in 0.2 mi Calm Calm - N/A Fog Fog
6:15 PM 59.4 °F 59.4 °F 100% 30.04 in 0.2 mi Calm Calm - N/A Fog Fog
6:35 PM 59.2 °F 59.2 °F 100% 30.04 in 0.2 mi Calm Calm - N/A Fog Fog
6:55 PM 59.2 °F 59.2 °F 100% 30.04 in 0.2 mi East 3.5 mph - N/A Fog Fog
7:15 PM 59.9 °F 59.9 °F 100% 30.04 in 0.5 mi Calm Calm - N/A Fog Fog
7:35 PM 60.8 °F 60.8 °F 100% 30.04 in 0.2 mi SE 3.5 mph - N/A Fog Fog
7:55 PM 61.9 °F 61.9 °F 100% 30.03 in 0.5 mi SSE 3.5 mph - N/A Fog Fog
8:15 PM 62.2 °F 62.2 °F 100% 30.03 in 0.2 mi SE 5.8 mph - N/A Fog Fog
8:35 PM 62.6 °F 62.6 °F 100% 30.02 in 0.2 mi SSE 5.8 mph - N/A Fog Fog
8:55 PM 63.5 °F 63.5 °F 100% 30.02 in 0.2 mi SSE 6.9 mph - N/A Fog Fog
9:15 PM 64.2 °F 64.2 °F 100% 30.01 in 0.5 mi SSE 6.9 mph - N/A Fog Fog
9:35 PM 64.8 °F 64.8 °F 100% 30.01 in 0.5 mi SSE 6.9 mph - N/A Fog Fog
9:55 PM 65.3 °F 65.3 °F 100% 30.01 in 0.2 mi South 6.9 mph - N/A Fog Fog
10:15 PM 65.7 °F 65.7 °F 100% 30.01 in 0.2 mi SSW 4.6 mph - N/A Fog Fog
10:35 PM 65.3 °F 65.3 °F 100% 30.00 in 0.2 mi South 5.8 mph - N/A Fog Fog
10:55 PM 65.7 °F 65.7 °F 100% 30.00 in 0.5 mi South 5.8 mph - N/A Fog Fog
11:15 PM 66.2 °F 66.2 °F 100% 30.00 in 2.0 mi South 11.5 mph - N/A   Overcast
11:35 PM 66.2 °F 66.2 °F 100% 29.99 in 3.0 mi South 9.2 mph 16.1 mph N/A   Overcast
11:55 PM 66.2 °F 66.2 °F 100% 29.99 in 3.0 mi South 9.2 mph - N/A   Overcast